TimeEDT,TemperatureF,Dew PointF,Humidity,Sea Level PressureIn,VisibilityMPH,Wind Direction,Wind SpeedMPH,Gust SpeedMPH,PrecipitationIn,Events,Conditions,WindDirDegrees,DateUTC
12:06 AM,28.4,19.4,69,29.81,9.0,NW,13.8,-,0.00,Snow,Light Snow,310,2013-03-21 04:06:00
12:51 AM,26.1,21.0,81,29.88,5.0,NNW,12.7,-,0.00,Snow,Light Snow,330,2013-03-21 04:51:00
1:44 AM,24.8,19.4,80,29.80,2.5,North,13.8,-,0.00,Snow,Light Snow,350,2013-03-21 05:44:00
1:51 AM,24.1,19.9,84,29.87,2.0,NNW,10.4,-,0.00,Snow,Light Snow,340,2013-03-21 05:51:00
2:20 AM,23.0,19.4,86,29.81,2.5,NNW,9.2,-,0.00,Snow,Light Snow,330,2013-03-21 06:20:00
2:27 AM,23.0,17.6,80,29.80,3.0,NNW,10.4,-,0.00,Snow,Light Snow,340,2013-03-21 06:27:00
2:36 AM,23.0,17.6,80,29.80,5.0,NNW,10.4,-,0.00,Snow,Light Snow,340,2013-03-21 06:36:00
2:51 AM,21.9,18.0,85,29.87,4.0,NW,10.4,-,0.00,Snow,Light Snow,320,2013-03-21 06:51:00
3:07 AM,21.2,17.6,86,29.79,2.0,NW,8.1,-,0.00,Snow,Light Snow,320,2013-03-21 07:07:00
3:18 AM,21.2,17.6,86,29.79,2.5,NNW,11.5,-,0.00,Snow,Light Snow,330,2013-03-21 07:18:00
3:30 AM,21.2,17.6,86,29.79,4.0,NNW,9.2,-,0.00,Snow,Light Snow,340,2013-03-21 07:30:00
3:51 AM,21.0,17.1,85,29.86,2.5,NNW,5.8,-,0.00,Snow,Light Snow,330,2013-03-21 07:51:00
4:00 AM,21.2,17.6,86,29.79,1.0,NW,9.2,-,0.00,Snow,Light Snow,310,2013-03-21 08:00:00
4:08 AM,21.2,17.6,86,29.78,0.8,NNW,9.2,-,0.00,Snow,Light Snow,340,2013-03-21 08:08:00
4:19 AM,19.4,15.8,86,29.78,1.0,NNW,13.8,-,0.00,Snow,Light Snow,330,2013-03-21 08:19:00
4:31 AM,19.4,15.8,86,29.78,2.0,NNW,12.7,20.7,0.00,Snow,Light Snow,340,2013-03-21 08:31:00
4:51 AM,19.0,14.0,81,29.85,7.0,NW,12.7,-,0.00,Snow,Light Snow,320,2013-03-21 08:51:00
5:05 AM,19.4,14.0,80,29.77,7.0,NNW,9.2,-,0.00,,Overcast,330,2013-03-21 09:05:00
5:35 AM,17.6,14.0,86,29.77,3.0,NNW,12.7,19.6,0.00,Snow,Light Snow,340,2013-03-21 09:35:00
5:43 AM,17.6,14.0,86,29.77,2.5,NNW,13.8,-,0.00,Snow,Light Snow,340,2013-03-21 09:43:00
5:51 AM,18.0,12.9,81,29.86,2.0,NNW,15.0,20.7,0.00,Snow,Light Snow,330,2013-03-21 09:51:00
6:03 AM,17.6,12.2,79,29.78,5.0,NNW,10.4,-,0.00,Snow,Light Snow,340,2013-03-21 10:03:00
6:51 AM,16.0,10.0,77,29.87,10.0,NW,10.4,19.6,0.00,,Overcast,320,2013-03-21 10:51:00
7:51 AM,15.1,8.1,74,29.88,10.0,NW,8.1,-,N/A,,Mostly Cloudy,320,2013-03-21 11:51:00
8:51 AM,17.1,8.1,68,29.89,10.0,NW,11.5,16.1,N/A,,Overcast,310,2013-03-21 12:51:00
9:10 AM,17.6,6.8,63,29.80,10.0,NW,10.4,-,N/A,,Overcast,310,2013-03-21 13:10:00
9:51 AM,18.0,9.0,68,29.92,9.0,NW,9.2,-,N/A,,Overcast,310,2013-03-21 13:51:00
9:59 AM,17.6,8.6,68,29.80,1.8,WNW,12.7,-,0.00,Snow,Light Snow,290,2013-03-21 13:59:00
10:13 AM,17.6,10.4,73,29.80,0.8,NW,8.1,-,0.00,Snow,Light Snow,310,2013-03-21 14:13:00
10:26 AM,17.6,12.2,79,29.80,0.2,WNW,8.1,-,0.01,Snow,Heavy Snow,290,2013-03-21 14:26:00
10:33 AM,17.6,12.2,79,29.81,0.2,WNW,11.5,-,0.01,Snow,Heavy Snow,290,2013-03-21 14:33:00
10:42 AM,17.6,10.4,73,29.81,0.8,NW,12.7,-,0.01,Snow,Light Snow,310,2013-03-21 14:42:00
10:45 AM,17.6,10.4,73,29.81,2.0,NNW,10.4,-,0.01,Snow,Light Snow,330,2013-03-21 14:45:00
10:51 AM,19.0,10.9,71,29.92,6.0,WNW,10.4,-,0.01,Snow,Light Snow,300,2013-03-21 14:51:00
11:01 AM,19.4,10.4,68,29.80,8.0,NW,11.5,-,0.00,,Overcast,310,2013-03-21 15:01:00
11:19 AM,19.4,8.6,63,29.80,9.0,WNW,9.2,18.4,0.00,,Overcast,290,2013-03-21 15:19:00
11:51 AM,19.0,10.0,68,29.92,4.0,WNW,13.8,19.6,0.00,Snow,Light Snow,300,2013-03-21 15:51:00
11:55 AM,17.6,10.4,73,29.81,1.8,NNW,15.0,-,0.00,Snow,Light Snow,330,2013-03-21 15:55:00
12:02 PM,17.6,12.2,79,29.81,0.8,NW,11.5,-,0.00,Snow,Light Snow,320,2013-03-21 16:02:00
12:16 PM,19.4,12.2,74,29.81,1.5,WNW,11.5,-,0.00,Snow,Light Snow,290,2013-03-21 16:16:00
12:24 PM,19.4,12.2,74,29.81,3.0,WNW,9.2,-,0.00,Snow,Light Snow,300,2013-03-21 16:24:00
12:47 PM,19.4,12.2,74,29.81,2.5,NW,13.8,-,0.00,Snow,Light Snow,310,2013-03-21 16:47:00
12:51 PM,19.9,12.0,71,29.93,1.8,NW,12.7,-,0.00,Snow,Light Snow,310,2013-03-21 16:51:00
1:02 PM,19.4,10.4,68,29.81,3.0,NW,12.7,-,0.00,Snow,Light Snow,310,2013-03-21 17:02:00
1:10 PM,19.4,10.4,68,29.81,1.8,WNW,13.8,-,0.00,Snow,Light Snow,300,2013-03-21 17:10:00
1:22 PM,19.4,12.2,74,29.81,3.0,NW,10.4,-,0.00,Snow,Light Snow,310,2013-03-21 17:22:00
1:42 PM,21.2,12.2,68,29.81,7.0,West,12.7,-,0.00,Snow,Light Snow,260,2013-03-21 17:42:00
1:51 PM,21.0,12.9,71,29.93,4.0,West,11.5,-,0.00,Snow,Light Snow,270,2013-03-21 17:51:00
1:59 PM,21.2,12.2,68,29.81,4.0,NW,11.5,-,0.00,Snow,Light Snow,320,2013-03-21 17:59:00
2:06 PM,19.4,12.2,74,29.80,2.0,NNW,11.5,-,0.00,Snow,Light Snow,340,2013-03-21 18:06:00
2:15 PM,19.4,12.2,74,29.80,0.8,WNW,9.2,-,0.00,Snow,Light Snow,300,2013-03-21 18:15:00
2:30 PM,21.2,15.8,80,29.80,2.0,NW,10.4,-,0.01,Snow,Light Snow,320,2013-03-21 18:30:00
2:38 PM,21.2,12.2,68,29.80,3.0,WNW,13.8,-,0.01,Snow,Light Snow,300,2013-03-21 18:38:00
2:43 PM,21.2,15.8,80,29.80,1.8,NW,12.7,-,0.01,Snow,Light Snow,320,2013-03-21 18:43:00
2:51 PM,19.9,15.1,81,29.94,0.5,NW,12.7,20.7,0.01,Snow,Snow,310,2013-03-21 18:51:00
2:58 PM,21.2,15.8,80,29.81,1.0,WNW,10.4,-,0.00,Snow,Light Snow,300,2013-03-21 18:58:00
3:07 PM,21.2,14.0,74,29.81,9.0,WNW,12.7,20.7,0.00,Snow,Light Snow,290,2013-03-21 19:07:00
3:20 PM,21.2,12.2,68,29.81,1.8,WNW,16.1,21.9,0.00,Snow,Light Snow,300,2013-03-21 19:20:00
3:44 PM,21.2,14.0,74,29.81,3.0,WNW,12.7,18.4,0.00,Snow,Light Snow,300,2013-03-21 19:44:00
3:51 PM,21.9,15.1,75,29.94,2.5,NW,17.3,24.2,0.00,Snow,Light Snow,320,2013-03-21 19:51:00
3:59 PM,21.2,14.0,74,29.82,1.5,NW,10.4,24.2,0.00,Snow,Light Snow,310,2013-03-21 19:59:00
4:03 PM,21.2,14.0,74,29.82,3.0,NW,12.7,-,0.00,Snow,Light Snow,320,2013-03-21 20:03:00
4:45 PM,19.4,14.0,80,29.83,1.5,NW,13.8,-,0.00,Snow,Light Snow,310,2013-03-21 20:45:00
4:51 PM,19.9,14.0,78,29.97,0.8,NW,13.8,-,0.00,Snow,Light Snow,310,2013-03-21 20:51:00
5:14 PM,19.4,15.8,86,29.84,0.5,NW,13.8,-,0.00,Snow,Snow,310,2013-03-21 21:14:00
5:24 PM,21.2,15.8,80,29.84,1.0,NW,10.4,-,0.00,Snow,Light Snow,320,2013-03-21 21:24:00
5:32 PM,21.2,12.2,68,29.84,9.0,WNW,11.5,-,0.00,,Scattered Clouds,300,2013-03-21 21:32:00
5:51 PM,21.0,10.9,65,29.98,10.0,NW,17.3,26.5,0.00,,Mostly Cloudy,310,2013-03-21 21:51:00
6:04 PM,19.4,12.2,74,29.85,3.0,NW,15.0,24.2,0.00,Snow,Light Snow,320,2013-03-21 22:04:00
6:27 PM,21.2,12.2,68,29.85,10.0,WNW,11.5,-,0.00,,Partly Cloudy,300,2013-03-21 22:27:00
6:44 PM,19.4,12.2,74,29.86,2.5,WNW,11.5,-,0.00,Snow,Light Snow,290,2013-03-21 22:44:00
6:51 PM,19.9,14.0,78,30.00,2.5,NW,10.4,-,0.00,Snow,Light Snow,310,2013-03-21 22:51:00
6:57 PM,19.4,14.0,80,29.86,8.0,WNW,10.4,-,0.00,Snow,Light Snow,300,2013-03-21 22:57:00
7:27 PM,19.4,12.2,74,29.86,10.0,NNW,8.1,-,0.00,,Overcast,340,2013-03-21 23:27:00
7:51 PM,19.9,12.0,71,30.02,6.0,NNW,12.7,-,0.00,Snow,Light Snow,330,2013-03-21 23:51:00
8:09 PM,19.4,10.4,68,29.88,9.0,NW,15.0,21.9,0.00,,Overcast,320,2013-03-22 00:09:00
8:51 PM,19.9,10.9,68,30.03,10.0,WNW,8.1,-,0.00,,Mostly Cloudy,300,2013-03-22 00:51:00
9:51 PM,19.0,10.9,71,30.05,10.0,NW,5.8,-,0.00,,Mostly Cloudy,310,2013-03-22 01:51:00
10:51 PM,18.0,10.0,71,30.05,10.0,NW,4.6,-,N/A,,Clear,320,2013-03-22 02:51:00
11:51 PM,16.0,9.0,74,30.06,10.0,West,3.5,-,N/A,,Clear,260,2013-03-22 03:51:00